TimeEDT,TemperatureF,Dew PointF,Humidity,Sea Level PressureIn,VisibilityMPH,Wind Direction,Wind SpeedMPH,Gust SpeedMPH,PrecipitationIn,Events,Conditions,WindDirDegrees,DateUTC
12:54 AM,55.0,42.1,62,29.86,10.0,SSW,9.2,-,0.02,Rain,Light Rain,210,2013-03-11 04:54:00
1:54 AM,55.0,41.0,59,29.86,7.0,SSW,11.5,18.4,0.02,Rain,Light Rain,200,2013-03-11 05:54:00
2:54 AM,52.0,44.1,74,29.87,10.0,WSW,8.1,-,0.01,Rain,Light Rain,240,2013-03-11 06:54:00
3:54 AM,51.1,45.0,80,29.85,9.0,South,8.1,-,0.08,Rain,Light Rain,190,2013-03-11 07:54:00
4:54 AM,51.1,44.1,77,29.83,8.0,South,9.2,-,0.02,Rain,Light Rain,170,2013-03-11 08:54:00
5:54 AM,50.0,44.1,80,29.83,10.0,SSE,4.6,-,0.03,Rain,Light Rain,160,2013-03-11 09:54:00
6:54 AM,48.9,45.0,86,29.83,9.0,Calm,Calm,-,0.04,Rain,Light Rain,0,2013-03-11 10:54:00
7:54 AM,48.0,46.0,93,29.83,6.0,NE,4.6,-,0.03,Rain,Rain,50,2013-03-11 11:54:00
8:54 AM,46.9,45.0,93,29.84,4.0,SE,8.1,-,0.10,Rain,Rain,130,2013-03-11 12:54:00
9:54 AM,48.9,45.0,86,29.81,5.0,SSE,12.7,-,0.07,Rain,Light Rain,160,2013-03-11 13:54:00
10:54 AM,48.9,45.0,86,29.75,4.0,SE,16.1,20.7,0.10,Rain,Light Rain,140,2013-03-11 14:54:00
11:54 AM,50.0,46.0,86,29.73,10.0,SSE,15.0,25.3,0.01,Rain,Light Rain,150,2013-03-11 15:54:00
12:54 PM,52.0,46.9,83,29.67,10.0,SSE,24.2,33.4,0.00,Rain,Light Rain,160,2013-03-11 16:54:00
1:54 PM,52.0,48.9,89,29.66,9.0,South,23.0,32.2,0.01,Rain,Light Rain,170,2013-03-11 17:54:00
2:54 PM,54.0,50.0,86,29.61,10.0,South,25.3,34.5,0.01,Rain,Light Rain,170,2013-03-11 18:54:00
3:16 PM,53.6,51.8,94,29.58,6.0,South,26.5,39.1,0.02,Rain,Light Rain,170,2013-03-11 19:16:00
3:34 PM,51.8,48.2,88,29.63,1.5,WSW,21.9,33.4,0.02,Rain,Light Rain,240,2013-03-11 19:34:00
3:39 PM,50.0,48.2,94,29.63,1.0,WSW,18.4,32.2,0.14,Rain,Heavy Rain,240,2013-03-11 19:39:00
3:54 PM,48.9,46.0,90,29.66,2.0,WSW,23.0,31.1,0.22,Rain,Rain,250,2013-03-11 19:54:00
4:02 PM,48.2,44.6,87,29.63,3.0,WSW,21.9,31.1,0.02,Rain,Heavy Rain,250,2013-03-11 20:02:00
4:52 PM,46.4,44.6,93,29.64,8.0,West,15.0,21.9,0.04,Rain,Light Rain,260,2013-03-11 20:52:00
4:54 PM,46.9,45.0,93,29.68,7.0,West,18.4,24.2,0.04,Rain,Light Rain,270,2013-03-11 20:54:00
5:15 PM,46.4,44.6,93,29.65,10.0,West,17.3,25.3,0.00,,Overcast,260,2013-03-11 21:15:00
5:30 PM,46.4,42.8,87,29.66,10.0,WSW,18.4,26.5,0.00,,Overcast,240,2013-03-11 21:30:00
5:54 PM,46.0,42.1,86,29.69,10.0,SW,19.6,27.6,0.00,,Overcast,220,2013-03-11 21:54:00
6:20 PM,46.4,41.0,81,29.66,10.0,SW,16.1,26.5,N/A,,Overcast,220,2013-03-11 22:20:00
7:54 PM,46.0,39.0,76,29.77,10.0,WSW,18.4,23.0,N/A,,Overcast,250,2013-03-11 23:54:00
8:05 PM,44.6,37.4,76,29.75,10.0,West,19.6,28.8,N/A,,Overcast,270,2013-03-12 00:05:00
8:21 PM,42.8,35.6,76,29.75,10.0,West,21.9,28.8,N/A,,Mostly Cloudy,260,2013-03-12 00:21:00
8:54 PM,42.1,34.0,73,29.80,10.0,WSW,20.7,27.6,N/A,,Mostly Cloudy,250,2013-03-12 00:54:00
9:54 PM,41.0,35.1,79,29.83,10.0,WSW,17.3,-,N/A,,Overcast,250,2013-03-12 01:54:00
10:54 PM,39.9,33.1,77,29.86,10.0,West,16.1,-,N/A,,Overcast,260,2013-03-12 02:54:00
11:23 PM,39.2,32.0,75,29.82,10.0,West,16.1,-,N/A,,Overcast,260,2013-03-12 03:23:00